When you browse on this site, cookies collect data to enhance your experience and personalize the content and advertising you see.
Visit our Privacy Policy to learn more. By continuing to use the site, you agree to this use of cookies and data.
  • In United Kingdom
  • List of Countries
  • For 7 days
  • Water Temperature
  • Weather Map
  • Weather Widgets
  • user-avatar
    Login

    Hourly Weather Kesälahti

    Today, 11 December, Wednesday

    Time Temperature Precipitation Wind Pressure Humidity
    00:00 -6°C° 0 mm 2 mps 753 mmHg 72%
    01:00 -6°C° 0 mm 2 mps 753 mmHg 73%
    02:00 -6°C° 0 mm 2 mps 754 mmHg 76%
    03:00 -6°C° 0 mm 2 mps 754 mmHg 76%
    04:00 -5°C° 0 mm 2 mps 754 mmHg 75%
    05:00 -6°C° 0 mm 3 mps 754 mmHg 75%
    06:00 -6°C° 0 mm 3 mps 754 mmHg 75%
    07:00 -7°C° 0 mm 4 mps 754 mmHg 75%
    08:00 -5°C° 0 mm 4 mps 754 mmHg 72%
    09:00 -6°C° 0 mm 5 mps 754 mmHg 72%
    10:00 -6°C° 0 mm 5 mps 753 mmHg 71%
    11:00 -5°C° 0 mm 6 mps 753 mmHg 70%
    12:00 -5°C° 0 mm 6 mps 752 mmHg 67%
    13:00 -5°C° 0 mm 6 mps 752 mmHg 64%
    14:00 -4°C° 0 mm 7 mps 752 mmHg 61%
    15:00 -4°C° 0 mm 7 mps 751 mmHg 63%
    16:00 -4°C° 0 mm 7 mps 751 mmHg 64%
    17:00 -4°C° 0 mm 7 mps 750 mmHg 66%
    18:00 -4°C° 0.1 mm 7 mps 750 mmHg 71%
    19:00 -4°C° 0.1 mm 7 mps 750 mmHg 76%
    20:00 -4°C° 0.1 mm 7 mps 750 mmHg 81%
    21:00 -4°C° 0.2 mm 7 mps 750 mmHg 84%
    22:00 -4°C° 0.2 mm 7 mps 750 mmHg 86%
    23:00 -4°C° 0.2 mm 6 mps 750 mmHg 88%

    Tomorrow, 12 December, Thursday

    Time Temperature Precipitation Wind Pressure Humidity
    00:00 -3°C° 0.1 mm 6 mps 750 mmHg 89%
    01:00 -3°C° 0.1 mm 6 mps 750 mmHg 90%
    02:00 -2°C° 0.1 mm 5 mps 750 mmHg 91%
    03:00 -2°C° 0.3 mm 5 mps 750 mmHg 92%
    04:00 -2°C° 0.3 mm 5 mps 749 mmHg 94%
    05:00 -4°C° 0.3 mm 5 mps 749 mmHg 95%
    06:00 -4°C° 0.6 mm 5 mps 749 mmHg 93%
    07:00 -4°C° 0.6 mm 5 mps 749 mmHg 91%
    08:00 -4°C° 0.6 mm 5 mps 750 mmHg 89%
    09:00 -4°C° 0.1 mm 5 mps 749 mmHg 88%
    10:00 -4°C° 0.1 mm 5 mps 749 mmHg 86%
    11:00 -4°C° 0.1 mm 5 mps 749 mmHg 84%
    12:00 -4°C° 0 mm 5 mps 749 mmHg 84%
    13:00 -4°C° 0 mm 5 mps 749 mmHg 83%
    14:00 -4°C° 0 mm 5 mps 749 mmHg 83%
    15:00 -4°C° 0 mm 5 mps 749 mmHg 83%
    16:00 -4°C° 0 mm 5 mps 749 mmHg 83%
    17:00 -4°C° 0 mm 5 mps 748 mmHg 83%
    18:00 -4°C° 0 mm 5 mps 748 mmHg 84%
    19:00 -4°C° 0 mm 5 mps 748 mmHg 85%
    20:00 -5°C° 0 mm 5 mps 748 mmHg 86%
    21:00 -4°C° 0.1 mm 4 mps 747 mmHg 88%
    22:00 -3°C° 0.1 mm 4 mps 746 mmHg 91%
    23:00 -3°C° 0.1 mm 4 mps 746 mmHg 93%

    Day after tomorrow, 13 December, Friday

    Time Temperature Precipitation Wind Pressure Humidity
    00:00 -3°C° 0.1 mm 4 mps 746 mmHg 92%
    01:00 -3°C° 0.1 mm 4 mps 745 mmHg 91%
    02:00 -2°C° 0.1 mm 4 mps 745 mmHg 91%
    03:00 -2°C° 0.1 mm 4 mps 745 mmHg 92%
    04:00 -2°C° 0.1 mm 4 mps 745 mmHg 94%
    05:00 -2°C° 0.1 mm 4 mps 745 mmHg 96%
    06:00 -2°C° 0.1 mm 4 mps 745 mmHg 95%
    07:00 -2°C° 0.1 mm 4 mps 745 mmHg 94%
    08:00 -2°C° 0.1 mm 5 mps 745 mmHg 93%
    09:00 -2°C° 0 mm 4 mps 745 mmHg 91%
    10:00 -2°C° 0 mm 4 mps 746 mmHg 89%
    11:00 -2°C° 0 mm 4 mps 746 mmHg 86%
    12:00 -2°C° 0 mm 4 mps 746 mmHg 89%
    13:00 -2°C° 0 mm 4 mps 746 mmHg 92%
    14:00 -1°C° 0 mm 4 mps 746 mmHg 95%
    15:00 -1°C° 0.1 mm 4 mps 746 mmHg 96%
    16:00 -1°C° 0.1 mm 4 mps 746 mmHg 96%
    17:00 -1°C° 0.1 mm 4 mps 746 mmHg 97%
    18:00 -1°C° 0.1 mm 4 mps 746 mmHg 97%
    19:00 -1°C° 0.1 mm 4 mps 746 mmHg 97%
    20:00 -1°C° 0.1 mm 4 mps 747 mmHg 97%
    21:00 -1°C° 0.1 mm 4 mps 747 mmHg 97%
    22:00 -1°C° 0.1 mm 4 mps 747 mmHg 96%
    23:00 -1°C° 0.1 mm 4 mps 747 mmHg 96%

    14 December, Saturday

    Time Temperature Precipitation Wind Pressure Humidity
    00:00 -1°C° 0 mm 4 mps 747 mmHg 95%
    01:00 -1°C° 0 mm 5 mps 747 mmHg 94%
    02:00 -1°C° 0 mm 5 mps 747 mmHg 93%
    03:00 -1°C° 0.1 mm 5 mps 747 mmHg 94%
    04:00 -1°C° 0.1 mm 5 mps 747 mmHg 95%
    05:00 -2°C° 0.1 mm 5 mps 747 mmHg 96%
    06:00 -2°C° 0.1 mm 5 mps 747 mmHg 96%
    07:00 -2°C° 0.1 mm 5 mps 747 mmHg 96%
    08:00 -2°C° 0.1 mm 5 mps 747 mmHg 96%
    09:00 -2°C° 0.1 mm 5 mps 747 mmHg 94%
    10:00 -2°C° 0.1 mm 5 mps 747 mmHg 92%
    11:00 -2°C° 0.1 mm 5 mps 747 mmHg 90%
    12:00 -2°C° 0.1 mm 5 mps 747 mmHg 91%
    13:00 -2°C° 0.1 mm 5 mps 746 mmHg 92%
    14:00 -3°C° 0.1 mm 6 mps 746 mmHg 93%
    15:00 -2°C° 0.1 mm 5 mps 746 mmHg 94%
    16:00 -2°C° 0.1 mm 5 mps 746 mmHg 95%
    17:00 -2°C° 0.1 mm 5 mps 745 mmHg 95%
    18:00 -1°C° 0.1 mm 5 mps 745 mmHg 95%
    19:00 -1°C° 0.1 mm 5 mps 745 mmHg 95%
    20:00 -1°C° 0.1 mm 5 mps 745 mmHg 95%
    21:00 -1°C° 0.1 mm 5 mps 745 mmHg 96%
    22:00 -1°C° 0.1 mm 5 mps 745 mmHg 96%
    23:00 -1°C° 0.1 mm 5 mps 744 mmHg 96%

    15 December, Sunday

    Time Temperature Precipitation Wind Pressure Humidity
    00:00 -2°C° 0.1 mm 6 mps 744 mmHg 96%
    01:00 -2°C° 0.1 mm 6 mps 744 mmHg 96%
    02:00 -2°C° 0.1 mm 6 mps 743 mmHg 96%
    03:00 -2°C° 0.4 mm 6 mps 743 mmHg 96%
    04:00 -2°C° 0.4 mm 6 mps 743 mmHg 96%
    05:00 -2°C° 0.4 mm 6 mps 742 mmHg 96%
    06:00 -2°C° 0.5 mm 6 mps 742 mmHg 96%
    07:00 -1°C° 0.5 mm 7 mps 741 mmHg 96%
    08:00 -1°C° 0.5 mm 7 mps 741 mmHg 96%
    09:00 -1°C° 0.3 mm 7 mps 740 mmHg 95%
    10:00 -1°C° 0.3 mm 7 mps 740 mmHg 94%
    11:00 0°C° 0.3 mm 7 mps 740 mmHg 94%
    12:00 0°C° 0.2 mm 7 mps 739 mmHg 94%
    13:00 -1°C° 0.2 mm 6 mps 739 mmHg 95%
    14:00 -1°C° 0.2 mm 6 mps 738 mmHg 96%
    15:00 -1°C° 0.3 mm 6 mps 738 mmHg 96%
    16:00 -1°C° 0.3 mm 6 mps 738 mmHg 95%
    17:00 0°C° 0.3 mm 5 mps 738 mmHg 95%
    18:00 0°C° 0.3 mm 5 mps 738 mmHg 95%
    19:00 -1°C° 0.3 mm 5 mps 738 mmHg 96%
    20:00 -1°C° 0.3 mm 5 mps 738 mmHg 96%
    21:00 -1°C° 0.1 mm 5 mps 738 mmHg 93%
    22:00 -2°C° 0.1 mm 6 mps 738 mmHg 91%
    23:00 -2°C° 0.1 mm 6 mps 738 mmHg 88%

    16 December, Monday

    Time Temperature Precipitation Wind Pressure Humidity
    00:00 -2°C° 0.3 mm 6 mps 738 mmHg 91%
    01:00 -2°C° 0.3 mm 6 mps 738 mmHg 93%
    02:00 -2°C° 0.3 mm 6 mps 738 mmHg 95%
    03:00 -2°C° 0.1 mm 6 mps 738 mmHg 94%
    04:00 -2°C° 0.1 mm 6 mps 738 mmHg 93%
    05:00 -2°C° 0.1 mm 6 mps 738 mmHg 92%
    06:00 -1°C° 0 mm 5 mps 738 mmHg 92%
    07:00 -2°C° 0 mm 4 mps 738 mmHg 92%
    08:00 -1°C° 0 mm 3 mps 738 mmHg 91%
    09:00 -1°C° 0 mm 3 mps 738 mmHg 91%
    10:00 -1°C° 0 mm 3 mps 738 mmHg 90%
    11:00 -1°C° 0 mm 3 mps 738 mmHg 90%
    12:00 -1°C° 0 mm 2 mps 738 mmHg 91%
    13:00 -1°C° 0 mm 2 mps 738 mmHg 91%
    14:00 -1°C° 0 mm 2 mps 738 mmHg 92%
    15:00 -1°C° 0 mm 2 mps 738 mmHg 93%
    16:00 -1°C° 0 mm 3 mps 738 mmHg 93%
    17:00 -1°C° 0 mm 3 mps 739 mmHg 94%
    18:00 -1°C° 0 mm 3 mps 739 mmHg 93%
    19:00 -1°C° 0 mm 3 mps 738 mmHg 91%
    20:00 0°C° 0 mm 3 mps 738 mmHg 90%
    21:00 0°C° 0 mm 3 mps 739 mmHg 91%
    22:00 0°C° 0 mm 3 mps 739 mmHg 92%
    23:00 0°C° 0 mm 3 mps 739 mmHg 92%
    Show more